Wetterdaten: Mittwoch, 30.09.2015
Datum Zeit Temp. A. Feuchte A. Luftdruck Regen Wind Richtung Richtung Sonnenschein ET UV Solar Taupunkt Windchill Windben Empfang
30.09.2015 00:00 8,4 C 78 % 1031,6 hPa 0,0 l/m 0,0 km/h (0 Bft) O-NO 58 0 min 0,000 mm 0,0 UV-I 0 W/m 4,8 C 8,4 C 0,0 km/h (0 Bft) 0,00 %
30.09.2015 00:05 8,2 C 79 % 1031,7 hPa 0,0 l/m 1,4 km/h (1 Bft) O 93 0 min 0,000 mm 0,0 UV-I 0 W/m 4,8 C 8,2 C 4,0 km/h (1 Bft) 0,00 %
30.09.2015 00:10 7,9 C 81 % 1031,7 hPa 0,0 l/m 0,0 km/h (0 Bft) O 85 0 min 0,000 mm 0,0 UV-I 0 W/m 4,8 C 7,9 C 0,0 km/h (0 Bft) 0,00 %
30.09.2015 00:15 7,7 C 82 % 1031,8 hPa 0,0 l/m 0,7 km/h (0 Bft) O 81 0 min 0,000 mm 0,0 UV-I 0 W/m 4,8 C 7,7 C 4,0 km/h (1 Bft) 0,00 %
30.09.2015 00:20 7,6 C 82 % 1031,7 hPa 0,0 l/m 2,2 km/h (1 Bft) O 80 0 min 0,000 mm 0,0 UV-I 0 W/m 4,7 C 7,6 C 4,0 km/h (1 Bft) 0,00 %
30.09.2015 00:25 7,5 C 83 % 1031,7 hPa 0,0 l/m 2,2 km/h (1 Bft) O 97 0 min 0,000 mm 0,0 UV-I 0 W/m 4,8 C 7,5 C 4,0 km/h (1 Bft) 0,00 %
30.09.2015 00:30 7,4 C 83 % 1032,0 hPa 0,0 l/m 1,4 km/h (1 Bft) O-NO 73 0 min 0,000 mm 0,0 UV-I 0 W/m 4,7 C 7,4 C 7,9 km/h (2 Bft) 0,00 %
30.09.2015 00:35 7,4 C 84 % 1031,9 hPa 0,0 l/m 0,0 km/h (0 Bft) O 81 0 min 0,000 mm 0,0 UV-I 0 W/m 4,9 C 7,4 C 0,0 km/h (0 Bft) 0,00 %
30.09.2015 00:40 7,4 C 84 % 1031,8 hPa 0,0 l/m 0,0 km/h (0 Bft) O-NO 74 0 min 0,000 mm 0,0 UV-I 0 W/m 4,9 C 7,4 C 0,0 km/h (0 Bft) 0,00 %
30.09.2015 00:45 7,2 C 85 % 1031,9 hPa 0,0 l/m 0,0 km/h (0 Bft) O-NO 73 0 min 0,000 mm 0,0 UV-I 0 W/m 4,9 C 7,2 C 0,0 km/h (0 Bft) 0,00 %
30.09.2015 00:50 7,2 C 85 % 1031,9 hPa 0,0 l/m 0,0 km/h (0 Bft) O 83 0 min 0,000 mm 0,0 UV-I 0 W/m 4,9 C 7,2 C 0,0 km/h (0 Bft) 0,00 %
30.09.2015 00:55 7,1 C 85 % 1032,0 hPa 0,0 l/m 0,0 km/h (0 Bft) O-NO 70 0 min 0,000 mm 0,0 UV-I 0 W/m 4,8 C 7,1 C 0,0 km/h (0 Bft) 0,00 %
30.09.2015 01:00 7,0 C 85 % 1032,0 hPa 0,0 l/m 0,0 km/h (0 Bft) O 88 0 min 0,000 mm 0,0 UV-I 0 W/m 4,7 C 7,0 C 0,0 km/h (0 Bft) 0,00 %
30.09.2015 01:05 6,9 C 85 % 1031,9 hPa 0,0 l/m 0,0 km/h (0 Bft) O-NO 62 0 min 0,000 mm 0,0 UV-I 0 W/m 4,6 C 6,9 C 0,0 km/h (0 Bft) 0,00 %
30.09.2015 01:10 6,8 C 85 % 1031,8 hPa 0,0 l/m 2,2 km/h (1 Bft) O 82 0 min 0,000 mm 0,0 UV-I 0 W/m 4,5 C 6,8 C 4,0 km/h (1 Bft) 0,00 %
30.09.2015 01:15 6,7 C 85 % 1031,8 hPa 0,0 l/m 1,8 km/h (1 Bft) O-SO 113 0 min 0,000 mm 0,0 UV-I 0 W/m 4,4 C 6,7 C 4,0 km/h (1 Bft) 0,00 %
30.09.2015 01:20 6,6 C 85 % 1031,8 hPa 0,0 l/m 0,0 km/h (0 Bft) O-NO 57 0 min 0,000 mm 0,0 UV-I 0 W/m 4,3 C 6,6 C 0,0 km/h (0 Bft) 0,00 %
30.09.2015 01:25 6,5 C 85 % 1031,8 hPa 0,0 l/m 0,0 km/h (0 Bft) O 91 0 min 0,000 mm 0,0 UV-I 0 W/m 4,2 C 6,5 C 0,0 km/h (0 Bft) 0,00 %
30.09.2015 01:30 6,4 C 86 % 1031,7 hPa 0,0 l/m 0,0 km/h (0 Bft) O 86 0 min 0,000 mm 0,0 UV-I 0 W/m 4,2 C 6,4 C 0,0 km/h (0 Bft) 0,00 %
30.09.2015 01:35 6,5 C 85 % 1031,7 hPa 0,0 l/m 0,0 km/h (0 Bft) NO 53 0 min 0,000 mm 0,0 UV-I 0 W/m 4,2 C 6,5 C 0,0 km/h (0 Bft) 0,00 %
30.09.2015 01:40 6,6 C 85 % 1031,8 hPa 0,0 l/m 0,0 km/h (0 Bft) O-NO 62 0 min 0,000 mm 0,0 UV-I 0 W/m 4,3 C 6,6 C 0,0 km/h (0 Bft) 0,00 %
30.09.2015 01:45 6,6 C 84 % 1031,7 hPa 0,0 l/m 0,0 km/h (0 Bft) O 85 0 min 0,000 mm 0,0 UV-I 0 W/m 4,1 C 6,6 C 0,0 km/h (0 Bft) 0,00 %
30.09.2015 01:50 6,4 C 84 % 1031,7 hPa 0,0 l/m 0,0 km/h (0 Bft) O-NO 71 0 min 0,000 mm 0,0 UV-I 0 W/m 3,9 C 6,4 C 0,0 km/h (0 Bft) 0,00 %
30.09.2015 01:55 6,2 C 85 % 1031,8 hPa 0,0 l/m 0,0 km/h (0 Bft) O 82 0 min 0,000 mm 0,0 UV-I 0 W/m 3,9 C 6,2 C 0,0 km/h (0 Bft) 0,00 %
30.09.2015 02:00 6,0 C 86 % 1031,9 hPa 0,0 l/m 0,0 km/h (0 Bft) O-NO 74 0 min 0,000 mm 0,0 UV-I 0 W/m 3,8 C 6,0 C 0,0 km/h (0 Bft) 0,00 %
30.09.2015 02:05 5,9 C 87 % 1032,0 hPa 0,0 l/m 0,0 km/h (0 Bft) O-NO 69 0 min 0,000 mm 0,0 UV-I 0 W/m 3,9 C 5,9 C 0,0 km/h (0 Bft) 0,00 %
30.09.2015 02:10 5,8 C 87 % 1031,9 hPa 0,0 l/m 0,0 km/h (0 Bft) O-NO 75 0 min 0,000 mm 0,0 UV-I 0 W/m 3,8 C 5,8 C 0,0 km/h (0 Bft) 0,00 %
30.09.2015 02:15 5,7 C 88 % 1031,9 hPa 0,0 l/m 0,0 km/h (0 Bft) O-NO 64 0 min 0,000 mm 0,0 UV-I 0 W/m 3,9 C 5,7 C 0,0 km/h (0 Bft) 0,00 %
30.09.2015 02:20 5,6 C 89 % 1031,8 hPa 0,0 l/m 0,0 km/h (0 Bft) O-NO 64 0 min 0,000 mm 0,0 UV-I 0 W/m 3,9 C 5,6 C 0,0 km/h (0 Bft) 0,00 %
30.09.2015 02:25 5,6 C 89 % 1031,7 hPa 0,0 l/m 0,0 km/h (0 Bft) O-NO 72 0 min 0,000 mm 0,0 UV-I 0 W/m 3,9 C 5,6 C 0,0 km/h (0 Bft) 0,00 %
30.09.2015 02:30 5,5 C 89 % 1031,8 hPa 0,0 l/m 0,0 km/h (0 Bft) O-NO 72 0 min 0,000 mm 0,0 UV-I 0 W/m 3,8 C 5,5 C 0,0 km/h (0 Bft) 0,00 %
30.09.2015 02:35 5,3 C 90 % 1031,8 hPa 0,0 l/m 0,0 km/h (0 Bft) O-NO 64 0 min 0,000 mm 0,0 UV-I 0 W/m 3,8 C 5,3 C 0,0 km/h (0 Bft) 0,00 %
30.09.2015 02:40 5,3 C 90 % 1031,7 hPa 0,0 l/m 0,0 km/h (0 Bft) O-NO 66 0 min 0,000 mm 0,0 UV-I 0 W/m 3,8 C 5,3 C 0,0 km/h (0 Bft) 0,00 %
30.09.2015 02:45 5,3 C 90 % 1031,7 hPa 0,0 l/m 0,0 km/h (0 Bft) O-NO 70 0 min 0,000 mm 0,0 UV-I 0 W/m 3,8 C 5,3 C 0,0 km/h (0 Bft) 0,00 %
30.09.2015 02:50 5,2 C 90 % 1031,7 hPa 0,0 l/m 0,0 km/h (0 Bft) O-NO 76 0 min 0,000 mm 0,0 UV-I 0 W/m 3,7 C 5,2 C 0,0 km/h (0 Bft) 0,00 %
30.09.2015 02:55 5,1 C 91 % 1031,7 hPa 0,0 l/m 0,0 km/h (0 Bft) O-NO 66 0 min 0,000 mm 0,0 UV-I 0 W/m 3,8 C 5,1 C 0,0 km/h (0 Bft) 0,00 %
30.09.2015 03:00 4,9 C 91 % 1031,6 hPa 0,0 l/m 0,0 km/h (0 Bft) O-NO 65 0 min 0,000 mm 0,0 UV-I 0 W/m 3,6 C 4,9 C 0,0 km/h (0 Bft) 0,00 %
30.09.2015 03:05 4,8 C 92 % 1031,6 hPa 0,0 l/m 0,0 km/h (0 Bft) O-NO 65 0 min 0,000 mm 0,0 UV-I 0 W/m 3,6 C 4,8 C 0,0 km/h (0 Bft) 0,00 %
30.09.2015 03:10 4,8 C 92 % 1031,6 hPa 0,0 l/m 0,0 km/h (0 Bft) O-NO 66 0 min 0,000 mm 0,0 UV-I 0 W/m 3,6 C 4,8 C 0,0 km/h (0 Bft) 0,00 %
30.09.2015 03:15 4,7 C 92 % 1031,5 hPa 0,0 l/m 0,0 km/h (0 Bft) O-NO 70 0 min 0,000 mm 0,0 UV-I 0 W/m 3,5 C 4,7 C 0,0 km/h (0 Bft) 0,00 %
30.09.2015 03:20 4,6 C 92 % 1031,5 hPa 0,0 l/m 0,0 km/h (0 Bft) O-NO 78 0 min 0,000 mm 0,0 UV-I 0 W/m 3,4 C 4,6 C 0,0 km/h (0 Bft) 0,00 %
30.09.2015 03:25 4,5 C 92 % 1031,7 hPa 0,0 l/m 0,0 km/h (0 Bft) O-NO 63 0 min 0,000 mm 0,0 UV-I 0 W/m 3,3 C 4,5 C 0,0 km/h (0 Bft) 0,00 %
30.09.2015 03:30 4,4 C 92 % 1031,4 hPa 0,0 l/m 0,0 km/h (0 Bft) O 100 0 min 0,000 mm 0,0 UV-I 0 W/m 3,2 C 4,4 C 0,0 km/h (0 Bft) 0,00 %
30.09.2015 03:35 4,4 C 93 % 1031,5 hPa 0,0 l/m 0,0 km/h (0 Bft) O 88 0 min 0,000 mm 0,0 UV-I 0 W/m 3,4 C 4,4 C 0,0 km/h (0 Bft) 0,00 %
30.09.2015 03:40 4,4 C 93 % 1031,4 hPa 0,0 l/m 0,0 km/h (0 Bft) O-NO 71 0 min 0,000 mm 0,0 UV-I 0 W/m 3,4 C 4,4 C 0,0 km/h (0 Bft) 0,00 %
30.09.2015 03:45 4,4 C 94 % 1031,3 hPa 0,0 l/m 0,0 km/h (0 Bft) O-NO 74 0 min 0,000 mm 0,0 UV-I 0 W/m 3,5 C 4,4 C 0,0 km/h (0 Bft) 0,00 %
30.09.2015 03:50 4,5 C 94 % 1031,2 hPa 0,0 l/m 0,0 km/h (0 Bft) O-NO 66 0 min 0,000 mm 0,0 UV-I 0 W/m 3,6 C 4,5 C 0,0 km/h (0 Bft) 0,00 %
30.09.2015 03:55 4,6 C 93 % 1031,3 hPa 0,0 l/m 0,0 km/h (0 Bft) O-NO 74 0 min 0,000 mm 0,0 UV-I 0 W/m 3,6 C 4,6 C 0,0 km/h (0 Bft) 0,00 %
30.09.2015 04:00 4,7 C 93 % 1031,3 hPa 0,0 l/m 0,4 km/h (0 Bft) O 97 0 min 0,000 mm 0,0 UV-I 0 W/m 3,7 C 4,7 C 4,0 km/h (1 Bft) 0,00 %
30.09.2015 04:05 4,7 C 92 % 1031,1 hPa 0,0 l/m 0,0 km/h (0 Bft) O-NO 76 0 min 0,000 mm 0,0 UV-I 0 W/m 3,5 C 4,7 C 0,0 km/h (0 Bft) 0,00 %
30.09.2015 04:10 4,7 C 91 % 1031,1 hPa 0,0 l/m 0,0 km/h (0 Bft) O-NO 66 0 min 0,000 mm 0,0 UV-I 0 W/m 3,4 C 4,7 C 0,0 km/h (0 Bft) 0,00 %
30.09.2015 04:15 4,5 C 91 % 1031,1 hPa 0,0 l/m 0,0 km/h (0 Bft) O-NO 78 0 min 0,000 mm 0,0 UV-I 0 W/m 3,2 C 4,5 C 0,0 km/h (0 Bft) 0,00 %
30.09.2015 04:20 4,4 C 91 % 1031,3 hPa 0,0 l/m 0,0 km/h (0 Bft) O-NO 61 0 min 0,000 mm 0,0 UV-I 0 W/m 3,1 C 4,4 C 0,0 km/h (0 Bft) 0,00 %
30.09.2015 04:25 4,4 C 91 % 1031,0 hPa 0,0 l/m 0,0 km/h (0 Bft) O-NO 68 0 min 0,000 mm 0,0 UV-I 0 W/m 3,1 C 4,4 C 0,0 km/h (0 Bft) 0,00 %
30.09.2015 04:30 4,4 C 91 % 1031,1 hPa 0,0 l/m 0,0 km/h (0 Bft) O-NO 64 0 min 0,000 mm 0,0 UV-I 0 W/m 3,1 C 4,4 C 0,0 km/h (0 Bft) 0,00 %
30.09.2015 04:35 4,3 C 91 % 1030,8 hPa 0,0 l/m 0,0 km/h (0 Bft) O 86 0 min 0,000 mm 0,0 UV-I 0 W/m 3,0 C 4,3 C 0,0 km/h (0 Bft) 0,00 %
30.09.2015 04:40 4,2 C 91 % 1030,9 hPa 0,0 l/m 0,0 km/h (0 Bft) O 85 0 min 0,000 mm 0,0 UV-I 0 W/m 2,9 C 4,2 C 0,0 km/h (0 Bft) 0,00 %
30.09.2015 04:45 4,1 C 91 % 1031,0 hPa 0,0 l/m 0,0 km/h (0 Bft) O-NO 74 0 min 0,000 mm 0,0 UV-I 0 W/m 2,8 C 4,1 C 0,0 km/h (0 Bft) 0,00 %
30.09.2015 04:50 3,9 C 92 % 1031,0 hPa 0,0 l/m 0,0 km/h (0 Bft) NO 49 0 min 0,000 mm 0,0 UV-I 0 W/m 2,7 C 3,9 C 0,0 km/h (0 Bft) 0,00 %
30.09.2015 04:55 3,9 C 93 % 1030,9 hPa 0,0 l/m 0,0 km/h (0 Bft) NO 49 0 min 0,000 mm 0,0 UV-I 0 W/m 2,9 C 3,9 C 0,0 km/h (0 Bft) 0,00 %
30.09.2015 05:00 3,9 C 92 % 1031,0 hPa 0,0 l/m 0,0 km/h (0 Bft) O-NO 61 0 min 0,000 mm 0,0 UV-I 0 W/m 2,7 C 3,9 C 0,0 km/h (0 Bft) 0,00 %
30.09.2015 05:05 4,0 C 92 % 1031,0 hPa 0,0 l/m 0,0 km/h (0 Bft) O-NO 62 0 min 0,000 mm 0,0 UV-I 0 W/m 2,8 C 4,0 C 0,0 km/h (0 Bft) 0,00 %
30.09.2015 05:10 4,1 C 92 % 1030,8 hPa 0,0 l/m 0,0 km/h (0 Bft) O-NO 64 0 min 0,000 mm 0,0 UV-I 0 W/m 2,9 C 4,1 C 0,0 km/h (0 Bft) 0,00 %
30.09.2015 05:15 4,2 C 92 % 1031,2 hPa 0,0 l/m 0,0 km/h (0 Bft) O-NO 63 0 min 0,000 mm 0,0 UV-I 0 W/m 3,0 C 4,2 C 0,0 km/h (0 Bft) 0,00 %
30.09.2015 05:20 4,3 C 91 % 1031,0 hPa 0,0 l/m 0,0 km/h (0 Bft) O-NO 72 0 min 0,000 mm 0,0 UV-I 0 W/m 3,0 C 4,3 C 0,0 km/h (0 Bft) 0,00 %
30.09.2015 05:25 4,3 C 91 % 1031,0 hPa 0,0 l/m 0,0 km/h (0 Bft) O-NO 60 0 min 0,000 mm 0,0 UV-I 0 W/m 3,0 C 4,3 C 0,0 km/h (0 Bft) 0,00 %
30.09.2015 05:30 4,4 C 91 % 1030,9 hPa 0,0 l/m 0,0 km/h (0 Bft) O-NO 68 0 min 0,000 mm 0,0 UV-I 0 W/m 3,1 C 4,4 C 0,0 km/h (0 Bft) 0,00 %
30.09.2015 05:35 4,5 C 90 % 1031,1 hPa 0,0 l/m 0,4 km/h (0 Bft) O-NO 62 0 min 0,000 mm 0,0 UV-I 0 W/m 3,0 C 4,5 C 4,0 km/h (1 Bft) 0,00 %
30.09.2015 05:40 4,6 C 89 % 1031,0 hPa 0,0 l/m 4,0 km/h (1 Bft) O-NO 76 0 min 0,000 mm 0,0 UV-I 0 W/m 2,9 C 4,6 C 7,9 km/h (2 Bft) 0,00 %
30.09.2015 05:45 4,7 C 89 % 1031,0 hPa 0,0 l/m 0,0 km/h (0 Bft) NO 51 0 min 0,000 mm 0,0 UV-I 0 W/m 3,0 C 4,7 C 0,0 km/h (0 Bft) 0,00 %
30.09.2015 05:50 4,8 C 88 % 1031,0 hPa 0,0 l/m 0,0 km/h (0 Bft) O-NO 70 0 min 0,000 mm 0,0 UV-I 0 W/m 3,0 C 4,8 C 0,0 km/h (0 Bft) 0,00 %
30.09.2015 05:55 4,7 C 88 % 1030,9 hPa 0,0 l/m 0,0 km/h (0 Bft) O-NO 61 0 min 0,000 mm 0,0 UV-I 0 W/m 2,9 C 4,7 C 0,0 km/h (0 Bft) 0,00 %
30.09.2015 06:00 4,6 C 88 % 1031,0 hPa 0,0 l/m 0,0 km/h (0 Bft) NO 53 0 min 0,000 mm 0,0 UV-I 0 W/m 2,8 C 4,6 C 0,0 km/h (0 Bft) 0,00 %
30.09.2015 06:05 4,5 C 88 % 1031,0 hPa 0,0 l/m 0,0 km/h (0 Bft) O 82 0 min 0,000 mm 0,0 UV-I 0 W/m 2,7 C 4,5 C 0,0 km/h (0 Bft) 0,00 %
30.09.2015 06:10 4,5 C 88 % 1030,9 hPa 0,0 l/m 0,4 km/h (0 Bft) O-NO 75 0 min 0,000 mm 0,0 UV-I 0 W/m 2,7 C 4,5 C 4,0 km/h (1 Bft) 0,00 %
30.09.2015 06:15 4,5 C 89 % 1031,0 hPa 0,0 l/m 0,7 km/h (0 Bft) O 83 0 min 0,000 mm 0,0 UV-I 0 W/m 2,8 C 4,5 C 4,0 km/h (1 Bft) 0,00 %
30.09.2015 06:20 4,4 C 89 % 1030,9 hPa 0,0 l/m 0,0 km/h (0 Bft) O-NO 61 0 min 0,000 mm 0,0 UV-I 0 W/m 2,7 C 4,4 C 0,0 km/h (0 Bft) 0,00 %
30.09.2015 06:25 4,3 C 89 % 1030,9 hPa 0,0 l/m 0,0 km/h (0 Bft) O-NO 69 0 min 0,000 mm 0,0 UV-I 0 W/m 2,7 C 4,3 C 0,0 km/h (0 Bft) 0,00 %
30.09.2015 06:30 4,2 C 90 % 1031,1 hPa 0,0 l/m 0,0 km/h (0 Bft) O 81 0 min 0,000 mm 0,0 UV-I 0 W/m 2,7 C 4,2 C 0,0 km/h (0 Bft) 0,00 %
30.09.2015 06:35 4,1 C 90 % 1030,9 hPa 0,0 l/m 0,0 km/h (0 Bft) O 79 0 min 0,000 mm 0,0 UV-I 0 W/m 2,6 C 4,1 C 0,0 km/h (0 Bft) 0,00 %
30.09.2015 06:40 4,0 C 90 % 1031,0 hPa 0,0 l/m 0,0 km/h (0 Bft) NO 54 0 min 0,000 mm 0,0 UV-I 0 W/m 2,5 C 4,0 C 0,0 km/h (0 Bft) 0,00 %
30.09.2015 06:45 4,0 C 91 % 1030,9 hPa 0,0 l/m 0,0 km/h (0 Bft) O-NO 73 0 min 0,000 mm 0,0 UV-I 0 W/m 2,7 C 4,0 C 0,0 km/h (0 Bft) 0,00 %
30.09.2015 06:50 4,0 C 90 % 1031,0 hPa 0,0 l/m 0,0 km/h (0 Bft) NO 53 0 min 0,000 mm 0,0 UV-I 0 W/m 2,5 C 4,0 C 0,0 km/h (0 Bft) 0,00 %
30.09.2015 06:55 4,0 C 90 % 1031,0 hPa 0,0 l/m 0,0 km/h (0 Bft) O-NO 62 0 min 0,000 mm 0,0 UV-I 0 W/m 2,5 C 4,0 C 0,0 km/h (0 Bft) 0,00 %
30.09.2015 07:00 4,1 C 90 % 1030,7 hPa 0,0 l/m 0,4 km/h (0 Bft) O-NO 62 0 min 0,000 mm 0,0 UV-I 0 W/m 2,6 C 4,1 C 4,0 km/h (1 Bft) 0,00 %
30.09.2015 07:05 4,1 C 90 % 1030,8 hPa 0,0 l/m 1,8 km/h (1 Bft) O-NO 68 0 min 0,000 mm 0,0 UV-I 3 W/m 2,6 C 4,1 C 4,0 km/h (1 Bft) 0,00 %
30.09.2015 07:10 4,2 C 90 % 1030,8 hPa 0,0 l/m 0,0 km/h (0 Bft) O-NO 70 0 min 0,000 mm 0,0 UV-I 8 W/m 2,7 C 4,2 C 0,0 km/h (0 Bft) 0,00 %
30.09.2015 07:15 4,2 C 90 % 1030,8 hPa 0,0 l/m 0,0 km/h (0 Bft) O-NO 70 5 min 0,000 mm 0,0 UV-I 66 W/m 2,7 C 4,2 C 0,0 km/h (0 Bft) 0,00 %
30.09.2015 07:20 4,1 C 90 % 1030,8 hPa 0,0 l/m 0,0 km/h (0 Bft) O-NO 73 5 min 0,000 mm 0,0 UV-I 73 W/m 2,6 C 4,1 C 0,0 km/h (0 Bft) 0,00 %
30.09.2015 07:25 4,0 C 91 % 1031,0 hPa 0,0 l/m 0,0 km/h (0 Bft) O-NO 69 5 min 0,000 mm 0,0 UV-I 86 W/m 2,7 C 4,0 C 0,0 km/h (0 Bft) 0,00 %
30.09.2015 07:30 3,9 C 90 % 1030,7 hPa 0,0 l/m 0,0 km/h (0 Bft) O-NO 69 5 min 0,000 mm 0,0 UV-I 84 W/m 2,4 C 3,9 C 0,0 km/h (0 Bft) 0,00 %
30.09.2015 07:35 4,0 C 91 % 1030,8 hPa 0,0 l/m 0,4 km/h (0 Bft) O-NO 62 5 min 0,000 mm 0,0 UV-I 91 W/m 2,7 C 4,0 C 4,0 km/h (1 Bft) 0,00 %
30.09.2015 07:40 4,2 C 90 % 1030,9 hPa 0,0 l/m 0,7 km/h (0 Bft) O 85 5 min 0,000 mm 0,0 UV-I 97 W/m 2,7 C 4,2 C 4,0 km/h (1 Bft) 0,00 %
30.09.2015 07:45 4,5 C 89 % 1031,1 hPa 0,0 l/m 0,4 km/h (0 Bft) NO 37 5 min 0,000 mm 0,0 UV-I 103 W/m 2,8 C 4,5 C 4,0 km/h (1 Bft) 0,00 %
30.09.2015 07:50 4,8 C 87 % 1031,1 hPa 0,0 l/m 0,0 km/h (0 Bft) NO 42 5 min 0,000 mm 0,0 UV-I 109 W/m 2,8 C 4,8 C 0,0 km/h (0 Bft) 0,00 %
30.09.2015 07:55 5,0 C 86 % 1031,0 hPa 0,0 l/m 0,0 km/h (0 Bft) O-NO 65 5 min 0,000 mm 0,0 UV-I 113 W/m 2,9 C 5,0 C 0,0 km/h (0 Bft) 0,00 %
30.09.2015 08:00 5,2 C 86 % 1031,1 hPa 0,0 l/m 0,0 km/h (0 Bft) O-NO 67 5 min 0,000 mm 0,0 UV-I 118 W/m 3,1 C 5,2 C 0,0 km/h (0 Bft) 0,00 %
30.09.2015 08:05 5,4 C 85 % 1031,0 hPa 0,0 l/m 2,2 km/h (1 Bft) O-NO 63 5 min 0,000 mm 0,0 UV-I 123 W/m 3,1 C 5,4 C 4,0 km/h (1 Bft) 0,00 %
30.09.2015 08:10 5,5 C 84 % 1031,2 hPa 0,0 l/m 2,9 km/h (1 Bft) O-NO 62 5 min 0,000 mm 0,0 UV-I 127 W/m 3,0 C 5,5 C 4,0 km/h (1 Bft) 0,00 %
30.09.2015 08:15 5,6 C 84 % 1031,1 hPa 0,0 l/m 5,8 km/h (2 Bft) O 84 5 min 0,000 mm 0,0 UV-I 131 W/m 3,1 C 5,6 C 7,9 km/h (2 Bft) 0,00 %
30.09.2015 08:20 5,8 C 82 % 1031,1 hPa 0,0 l/m 0,0 km/h (0 Bft) O-NO 74 5 min 0,000 mm 1,0 UV-I 134 W/m 3,0 C 5,8 C 0,0 km/h (0 Bft) 0,00 %
30.09.2015 08:25 6,0 C 82 % 1031,2 hPa 0,0 l/m 1,8 km/h (1 Bft) N-NO 33 5 min 0,000 mm 1,0 UV-I 137 W/m 3,2 C 6,0 C 4,0 km/h (1 Bft) 0,00 %
30.09.2015 08:31 6,1 C 82 % 1031,0 hPa 0,0 l/m 5,8 km/h (2 Bft) O 94 6 min 0,000 mm 1,0 UV-I 140 W/m 3,3 C 6,1 C 7,9 km/h (2 Bft) 0,00 %
30.09.2015 08:36 6,3 C 81 % 1031,0 hPa 0,0 l/m 0,4 km/h (0 Bft) O-NO 68 5 min 0,000 mm 1,0 UV-I 143 W/m 3,3 C 6,3 C 4,0 km/h (1 Bft) 0,00 %
30.09.2015 08:41 6,5 C 81 % 1031,1 hPa 0,0 l/m 2,9 km/h (1 Bft) O-NO 75 0 min 0,000 mm 1,0 UV-I 145 W/m 3,5 C 6,5 C 4,0 km/h (1 Bft) 0,00 %
30.09.2015 08:46 6,6 C 80 % 1031,4 hPa 0,0 l/m 0,0 km/h (0 Bft) O-NO 76 0 min 0,000 mm 1,0 UV-I 147 W/m 3,4 C 6,6 C 0,0 km/h (0 Bft) 0,00 %
30.09.2015 08:51 6,8 C 80 % 1031,4 hPa 0,0 l/m 1,8 km/h (1 Bft) O-NO 59 0 min 0,000 mm 1,0 UV-I 149 W/m 3,6 C 6,8 C 4,0 km/h (1 Bft) 0,00 %
30.09.2015 08:56 7,1 C 78 % 1031,4 hPa 0,0 l/m 0,4 km/h (0 Bft) O-NO 77 0 min 0,000 mm 1,0 UV-I 151 W/m 3,5 C 7,1 C 4,0 km/h (1 Bft) 0,00 %
30.09.2015 09:01 7,2 C 79 % 1031,3 hPa 0,0 l/m 4,7 km/h (1 Bft) O-NO 74 0 min 0,000 mm 1,0 UV-I 151 W/m 3,8 C 7,2 C 11,9 km/h (2 Bft) 0,00 %
30.09.2015 09:06 7,2 C 78 % 1031,5 hPa 0,0 l/m 4,7 km/h (1 Bft) O-SO 107 0 min 0,000 mm 1,0 UV-I 155 W/m 3,6 C 7,2 C 7,9 km/h (2 Bft) 0,00 %
30.09.2015 09:11 7,3 C 77 % 1031,5 hPa 0,0 l/m 11,9 km/h (2 Bft) O-SO 113 0 min 0,000 mm 1,0 UV-I 158 W/m 3,5 C 3,5 C 15,8 km/h (3 Bft) 0,00 %
30.09.2015 09:16 7,6 C 76 % 1031,5 hPa 0,0 l/m 5,8 km/h (2 Bft) O 100 0 min 0,000 mm 1,0 UV-I 160 W/m 3,6 C 7,6 C 7,9 km/h (2 Bft) 0,00 %
30.09.2015 09:21 7,9 C 74 % 1031,5 hPa 0,0 l/m 4,3 km/h (1 Bft) O 80 0 min 0,000 mm 1,0 UV-I 163 W/m 3,6 C 7,9 C 7,9 km/h (2 Bft) 0,00 %
30.09.2015 09:26 8,1 C 74 % 1031,6 hPa 0,0 l/m 7,2 km/h (2 Bft) O-NO 70 0 min 0,000 mm 1,0 UV-I 165 W/m 3,8 C 7,5 C 11,9 km/h (2 Bft) 0,00 %
30.09.2015 09:31 8,3 C 74 % 1031,6 hPa 0,0 l/m 1,4 km/h (1 Bft) O 80 0 min 0,000 mm 1,0 UV-I 168 W/m 3,9 C 8,3 C 4,0 km/h (1 Bft) 0,00 %
30.09.2015 09:36 8,4 C 72 % 1031,6 hPa 0,0 l/m 7,9 km/h (2 Bft) NO 43 0 min 0,000 mm 1,0 UV-I 171 W/m 3,7 C 7,2 C 11,9 km/h (2 Bft) 0,00 %
30.09.2015 09:41 8,6 C 72 % 1031,6 hPa 0,0 l/m 11,5 km/h (2 Bft) O-NO 67 0 min 0,000 mm 1,0 UV-I 175 W/m 3,8 C 5,2 C 11,9 km/h (2 Bft) 0,00 %
30.09.2015 09:46 8,7 C 71 % 1031,8 hPa 0,0 l/m 9,0 km/h (2 Bft) O 92 0 min 0,000 mm 1,0 UV-I 182 W/m 3,7 C 6,8 C 11,9 km/h (2 Bft) 0,00 %
30.09.2015 09:51 8,9 C 70 % 1031,6 hPa 0,0 l/m 8,3 km/h (2 Bft) O-NO 62 0 min 0,000 mm 1,0 UV-I 186 W/m 3,7 C 7,5 C 11,9 km/h (2 Bft) 0,00 %
30.09.2015 09:56 9,0 C 68 % 1031,6 hPa 0,0 l/m 0,0 km/h (0 Bft) N-NW 333 0 min 0,000 mm 1,0 UV-I 192 W/m 3,4 C 9,0 C 0,0 km/h (0 Bft) 0,00 %
30.09.2015 10:01 9,2 C 67 % 1031,6 hPa 0,0 l/m 13,0 km/h (3 Bft) O 96 0 min 0,000 mm 1,0 UV-I 199 W/m 3,4 C 5,1 C 19,8 km/h (3 Bft) 0,00 %
30.09.2015 10:06 9,3 C 66 % 1031,6 hPa 0,0 l/m 14,0 km/h (3 Bft) O-SO 110 0 min 0,000 mm 1,0 UV-I 207 W/m 3,3 C 4,7 C 19,8 km/h (3 Bft) 0,00 %
30.09.2015 10:11 9,4 C 66 % 1031,6 hPa 0,0 l/m 10,4 km/h (2 Bft) O-NO 60 0 min 0,000 mm 1,0 UV-I 215 W/m 3,4 C 6,7 C 15,8 km/h (3 Bft) 0,00 %
30.09.2015 10:16 9,5 C 65 % 1031,6 hPa 0,0 l/m 4,7 km/h (1 Bft) O-NO 69 0 min 0,000 mm 1,0 UV-I 224 W/m 3,3 C 9,5 C 11,9 km/h (2 Bft) 0,00 %
30.09.2015 10:21 9,5 C 65 % 1031,7 hPa 0,0 l/m 4,7 km/h (1 Bft) O-NO 63 0 min 0,000 mm 1,0 UV-I 233 W/m 3,3 C 9,5 C 11,9 km/h (2 Bft) 0,00 %
30.09.2015 10:26 9,7 C 64 % 1031,5 hPa 0,0 l/m 7,9 km/h (2 Bft) O 98 0 min 0,000 mm 1,0 UV-I 242 W/m 3,2 C 8,6 C 11,9 km/h (2 Bft) 0,00 %
30.09.2015 10:31 9,8 C 64 % 1031,5 hPa 0,0 l/m 15,5 km/h (3 Bft) O 83 0 min 0,000 mm 1,0 UV-I 252 W/m 3,3 C 4,7 C 19,8 km/h (3 Bft) 0,00 %
30.09.2015 10:36 9,9 C 62 % 1031,4 hPa 0,0 l/m 14,4 km/h (3 Bft) O-SO 103 0 min 0,000 mm 1,0 UV-I 262 W/m 3,0 C 5,3 C 19,8 km/h (3 Bft) 0,00 %
30.09.2015 10:41 9,9 C 62 % 1031,4 hPa 0,0 l/m 6,5 km/h (2 Bft) O-NO 62 0 min 0,000 mm 1,0 UV-I 273 W/m 3,0 C 9,9 C 11,9 km/h (2 Bft) 0,00 %
30.09.2015 10:46 10,0 C 62 % 1031,4 hPa 0,0 l/m 1,4 km/h (1 Bft) O 99 0 min 0,000 mm 1,0 UV-I 286 W/m 3,1 C 10,0 C 4,0 km/h (1 Bft) 0,00 %
30.09.2015 10:51 10,0 C 62 % 1031,1 hPa 0,0 l/m 11,9 km/h (2 Bft) O-SO 110 5 min 0,000 mm 2,0 UV-I 297 W/m 3,1 C 6,6 C 24,1 km/h (4 Bft) 0,00 %
30.09.2015 10:56 10,1 C 61 % 1031,2 hPa 0,0 l/m 4,7 km/h (1 Bft) O-NO 77 5 min 0,000 mm 2,0 UV-I 309 W/m 2,9 C 10,1 C 7,9 km/h (2 Bft) 0,00 %
30.09.2015 11:01 10,1 C 62 % 1031,4 hPa 0,0 l/m 12,2 km/h (2 Bft) O-NO 66 5 min 0,000 mm 2,0 UV-I 320 W/m 3,2 C 6,5 C 15,8 km/h (3 Bft) 0,00 %
30.09.2015 11:06 10,2 C 61 % 1031,4 hPa 0,0 l/m 21,6 km/h (4 Bft) O-SO 106 5 min 0,000 mm 2,0 UV-I 336 W/m 3,0 C 3,0 C 24,1 km/h (4 Bft) 0,00 %
30.09.2015 11:11 10,4 C 61 % 1031,4 hPa 0,0 l/m 13,3 km/h (3 Bft) SO 138 5 min 0,000 mm 2,0 UV-I 350 W/m 3,2 C 6,4 C 19,8 km/h (3 Bft) 0,00 %
30.09.2015 11:16 10,4 C 60 % 1031,3 hPa 0,0 l/m 15,8 km/h (3 Bft) O-NO 73 5 min 0,000 mm 2,0 UV-I 350 W/m 3,0 C 5,3 C 19,8 km/h (3 Bft) 0,00 %
30.09.2015 11:21 10,5 C 61 % 1031,3 hPa 0,0 l/m 16,9 km/h (3 Bft) O-NO 67 5 min 0,000 mm 2,0 UV-I 328 W/m 3,3 C 5,0 C 19,8 km/h (3 Bft) 0,00 %
30.09.2015 11:26 10,6 C 60 % 1031,4 hPa 0,0 l/m 6,5 km/h (2 Bft) O 89 5 min 0,000 mm 2,0 UV-I 341 W/m 3,2 C 10,6 C 7,9 km/h (2 Bft) 0,00 %
30.09.2015 11:31 10,8 C 59 % 1031,2 hPa 0,0 l/m 10,8 km/h (2 Bft) O 84 5 min 0,000 mm 2,0 UV-I 361 W/m 3,1 C 8,0 C 15,8 km/h (3 Bft) 0,00 %
30.09.2015 11:36 10,7 C 59 % 1031,2 hPa 0,0 l/m 19,1 km/h (3 Bft) O 90 5 min 0,000 mm 2,0 UV-I 372 W/m 3,0 C 4,5 C 28,1 km/h (4 Bft) 0,00 %
30.09.2015 11:41 10,7 C 59 % 1031,4 hPa 0,0 l/m 10,8 km/h (2 Bft) O-NO 69 5 min 0,000 mm 2,0 UV-I 387 W/m 3,0 C 7,9 C 19,8 km/h (3 Bft) 0,00 %
30.09.2015 11:46 10,7 C 59 % 1031,2 hPa 0,0 l/m 11,5 km/h (2 Bft) O-NO 76 5 min 0,000 mm 2,0 UV-I 405 W/m 3,0 C 7,6 C 19,8 km/h (3 Bft) 0,00 %
30.09.2015 11:51 10,8 C 58 % 1031,1 hPa 0,0 l/m 9,0 km/h (2 Bft) O 91 5 min 0,000 mm 2,0 UV-I 421 W/m 2,9 C 9,1 C 15,8 km/h (3 Bft) 0,00 %
30.09.2015 11:56 11,0 C 57 % 1031,0 hPa 0,0 l/m 10,4 km/h (2 Bft) SO 124 5 min 0,000 mm 2,0 UV-I 441 W/m 2,8 C 8,5 C 15,8 km/h (3 Bft) 0,00 %
30.09.2015 12:01 11,2 C 57 % 1030,8 hPa 0,0 l/m 14,8 km/h (3 Bft) O 99 5 min 0,000 mm 2,0 UV-I 455 W/m 3,0 C 6,7 C 15,8 km/h (3 Bft) 0,00 %
30.09.2015 12:06 11,3 C 56 % 1030,8 hPa 0,0 l/m 2,2 km/h (1 Bft) O-NO 64 5 min 0,000 mm 2,0 UV-I 468 W/m 2,8 C 11,3 C 11,9 km/h (2 Bft) 0,00 %
30.09.2015 12:11 11,5 C 56 % 1030,8 hPa 0,0 l/m 11,5 km/h (2 Bft) O-NO 60 5 min 0,000 mm 2,0 UV-I 488 W/m 3,0 C 8,5 C 15,8 km/h (3 Bft) 0,00 %
30.09.2015 12:16 11,7 C 54 % 1030,8 hPa 0,0 l/m 7,2 km/h (2 Bft) O 93 5 min 0,000 mm 2,0 UV-I 509 W/m 2,7 C 11,2 C 11,9 km/h (2 Bft) 0,00 %
30.09.2015 12:21 11,9 C 54 % 1030,6 hPa 0,0 l/m 2,9 km/h (1 Bft) O 91 5 min 0,000 mm 2,0 UV-I 520 W/m 2,9 C 11,9 C 7,9 km/h (2 Bft) 0,00 %
30.09.2015 12:26 11,7 C 54 % 1030,6 hPa 0,0 l/m 10,4 km/h (2 Bft) O 93 5 min 0,000 mm 2,0 UV-I 538 W/m 2,7 C 9,3 C 11,9 km/h (2 Bft) 0,00 %
30.09.2015 12:31 11,4 C 54 % 1030,3 hPa 0,0 l/m 14,4 km/h (3 Bft) O 85 5 min 0,000 mm 2,0 UV-I 544 W/m 2,4 C 7,1 C 19,8 km/h (3 Bft) 0,00 %
30.09.2015 12:36 11,6 C 53 % 1030,5 hPa 0,0 l/m 16,6 km/h (3 Bft) O 81 5 min 0,000 mm 2,0 UV-I 568 W/m 2,4 C 6,5 C 24,1 km/h (4 Bft) 0,00 %
30.09.2015 12:41 11,9 C 53 % 1030,4 hPa 0,0 l/m 6,8 km/h (2 Bft) O-SO 123 5 min 0,000 mm 2,0 UV-I 560 W/m 2,6 C 11,6 C 11,9 km/h (2 Bft) 0,00 %
30.09.2015 12:46 12,1 C 53 % 1030,5 hPa 0,0 l/m 7,9 km/h (2 Bft) O 93 5 min 0,000 mm 2,0 UV-I 596 W/m 2,8 C 11,1 C 11,9 km/h (2 Bft) 0,00 %
30.09.2015 12:51 12,2 C 54 % 1030,4 hPa 0,0 l/m 6,8 km/h (2 Bft) NO 51 5 min 0,000 mm 2,0 UV-I 602 W/m 3,2 C 11,9 C 11,9 km/h (2 Bft) 0,00 %
30.09.2015 12:56 12,4 C 52 % 1030,3 hPa 0,0 l/m 11,9 km/h (2 Bft) O-NO 60 5 min 0,000 mm 2,0 UV-I 616 W/m 2,8 C 9,3 C 15,8 km/h (3 Bft) 0,00 %
30.09.2015 13:01 12,5 C 53 % 1030,3 hPa 0,0 l/m 12,2 km/h (2 Bft) SO 135 5 min 0,000 mm 2,0 UV-I 620 W/m 3,2 C 9,3 C 15,8 km/h (3 Bft) 0,00 %
30.09.2015 13:06 12,4 C 53 % 1030,0 hPa 0,0 l/m 0,4 km/h (0 Bft) O-NO 78 0 min 0,000 mm 2,0 UV-I 158 W/m 3,1 C 12,4 C 4,0 km/h (1 Bft) 0,00 %
30.09.2015 13:11 12,6 C 52 % 1030,0 hPa 0,0 l/m 8,3 km/h (2 Bft) O-SO 118 0 min 0,000 mm 2,0 UV-I 188 W/m 3,0 C 11,4 C 11,9 km/h (2 Bft) 0,00 %
30.09.2015 13:16 12,6 C 52 % 1030,2 hPa 0,0 l/m 20,9 km/h (4 Bft) O 95 5 min 0,000 mm 2,0 UV-I 641 W/m 3,0 C 6,4 C 28,1 km/h (4 Bft) 0,00 %
30.09.2015 13:21 12,6 C 53 % 1029,9 hPa 0,0 l/m 18,0 km/h (3 Bft) O 80 5 min 0,000 mm 2,0 UV-I 654 W/m 3,3 C 7,3 C 28,1 km/h (4 Bft) 0,00 %
30.09.2015 13:26 12,4 C 53 % 1030,0 hPa 0,0 l/m 7,9 km/h (2 Bft) O-NO 72 5 min 0,000 mm 2,0 UV-I 664 W/m 3,1 C 11,4 C 11,9 km/h (2 Bft) 0,00 %
30.09.2015 13:31 12,4 C 52 % 1029,8 hPa 0,0 l/m 5,8 km/h (2 Bft) NO 50 5 min 0,000 mm 2,0 UV-I 672 W/m 2,8 C 12,4 C 11,9 km/h (2 Bft) 0,00 %
30.09.2015 13:36 12,7 C 52 % 1029,5 hPa 0,0 l/m 9,4 km/h (2 Bft) O 95 5 min 0,000 mm 2,0 UV-I 666 W/m 3,1 C 10,9 C 11,9 km/h (2 Bft) 0,00 %
30.09.2015 13:41 12,8 C 53 % 1029,8 hPa 0,0 l/m 15,5 km/h (3 Bft) O-SO 108 5 min 0,000 mm 2,0 UV-I 680 W/m 3,5 C 8,3 C 19,8 km/h (3 Bft) 0,00 %
30.09.2015 13:46 12,7 C 52 % 1029,8 hPa 0,0 l/m 8,3 km/h (2 Bft) O-NO 75 5 min 0,000 mm 1,0 UV-I 677 W/m 3,1 C 11,5 C 11,9 km/h (2 Bft) 0,00 %
30.09.2015 13:51 12,6 C 52 % 1029,8 hPa 0,0 l/m 19,8 km/h (3 Bft) O 98 5 min 0,000 mm 1,0 UV-I 678 W/m 3,0 C 6,7 C 24,1 km/h (4 Bft) 0,00 %
30.09.2015 13:56 12,4 C 52 % 1029,5 hPa 0,0 l/m 7,2 km/h (2 Bft) O-NO 75 5 min 0,000 mm 1,0 UV-I 688 W/m 2,8 C 11,9 C 7,9 km/h (2 Bft) 0,00 %
30.09.2015 14:01 12,4 C 52 % 1029,5 hPa 0,0 l/m 3,2 km/h (1 Bft) O 87 0 min 0,000 mm 1,0 UV-I 246 W/m 2,8 C 12,4 C 7,9 km/h (2 Bft) 0,00 %
30.09.2015 14:06 12,4 C 52 % 1029,6 hPa 0,0 l/m 9,0 km/h (2 Bft) O-NO 76 5 min 0,000 mm 1,0 UV-I 693 W/m 2,8 C 10,8 C 15,8 km/h (3 Bft) 0,00 %
30.09.2015 14:11 12,6 C 50 % 1029,8 hPa 0,0 l/m 10,8 km/h (2 Bft) O-NO 74 5 min 0,000 mm 1,0 UV-I 398 W/m 2,5 C 10,1 C 15,8 km/h (3 Bft) 0,00 %
30.09.2015 14:16 12,9 C 51 % 1029,9 hPa 0,0 l/m 8,3 km/h (2 Bft) O 80 5 min 0,000 mm 1,0 UV-I 738 W/m 3,0 C 11,7 C 15,8 km/h (3 Bft) 0,00 %
30.09.2015 14:21 13,1 C 50 % 1029,1 hPa 0,0 l/m 14,4 km/h (3 Bft) O 85 5 min 0,000 mm 1,0 UV-I 734 W/m 2,9 C 9,1 C 19,8 km/h (3 Bft) 0,00 %
30.09.2015 14:26 13,1 C 49 % 1029,4 hPa 0,0 l/m 13,3 km/h (3 Bft) O 87 5 min 0,000 mm 1,0 UV-I 725 W/m 2,6 C 9,5 C 15,8 km/h (3 Bft) 0,00 %
30.09.2015 14:31 13,0 C 47 % 1029,2 hPa 0,0 l/m 10,4 km/h (2 Bft) O-SO 103 5 min 0,000 mm 1,0 UV-I 717 W/m 2,0 C 10,7 C 11,9 km/h (2 Bft) 0,00 %
30.09.2015 14:36 12,8 C 49 % 1029,1 hPa 0,0 l/m 7,2 km/h (2 Bft) O 87 5 min 0,000 mm 1,0 UV-I 714 W/m 2,4 C 12,3 C 7,9 km/h (2 Bft) 0,00 %
30.09.2015 14:41 12,7 C 48 % 1029,6 hPa 0,0 l/m 25,6 km/h (4 Bft) O 98 5 min 0,000 mm 1,0 UV-I 344 W/m 2,0 C 5,4 C 28,1 km/h (4 Bft) 0,00 %
30.09.2015 14:46 12,7 C 50 % 1029,8 hPa 0,0 l/m 5,8 km/h (2 Bft) O-NO 60 0 min 0,000 mm 1,0 UV-I 168 W/m 2,6 C 12,7 C 7,9 km/h (2 Bft) 0,00 %
30.09.2015 14:51 12,4 C 51 % 1029,3 hPa 0,0 l/m 4,3 km/h (1 Bft) O-NO 75 5 min 0,000 mm 1,0 UV-I 707 W/m 2,6 C 12,4 C 7,9 km/h (2 Bft) 0,00 %
30.09.2015 14:56 12,2 C 49 % 1029,0 hPa 0,0 l/m 14,4 km/h (3 Bft) O 93 5 min 0,000 mm 1,0 UV-I 696 W/m 1,8 C 8,0 C 19,8 km/h (3 Bft) 0,00 %
30.09.2015 15:01 12,5 C 47 % 1028,9 hPa 0,0 l/m 7,9 km/h (2 Bft) O-NO 58 5 min 0,000 mm 1,0 UV-I 699 W/m 1,5 C 11,5 C 15,8 km/h (3 Bft) 0,00 %
30.09.2015 15:06 12,7 C 47 % 1028,9 hPa 0,0 l/m 8,3 km/h (2 Bft) NO 55 5 min 0,000 mm 1,0 UV-I 698 W/m 1,7 C 11,5 C 11,9 km/h (2 Bft) 0,00 %
30.09.2015 15:11 12,9 C 46 % 1028,8 hPa 0,0 l/m 9,0 km/h (2 Bft) O 98 5 min 0,000 mm 1,0 UV-I 693 W/m 1,6 C 11,3 C 15,8 km/h (3 Bft) 0,00 %
30.09.2015 15:16 13,0 C 47 % 1028,7 hPa 0,0 l/m 9,4 km/h (2 Bft) O-SO 105 5 min 0,000 mm 1,0 UV-I 732 W/m 2,0 C 11,2 C 19,8 km/h (3 Bft) 0,00 %
30.09.2015 15:21 13,1 C 46 % 1028,7 hPa 0,0 l/m 0,4 km/h (0 Bft) N-NO 29 5 min 0,000 mm 1,0 UV-I 720 W/m 1,7 C 13,1 C 4,0 km/h (1 Bft) 0,00 %
30.09.2015 15:26 13,3 C 45 % 1028,4 hPa 0,0 l/m 20,5 km/h (4 Bft) O-NO 73 5 min 0,000 mm 1,0 UV-I 717 W/m 1,6 C 7,4 C 24,1 km/h (4 Bft) 0,00 %
30.09.2015 15:31 13,2 C 45 % 1028,6 hPa 0,0 l/m 7,2 km/h (2 Bft) O-NO 70 5 min 0,000 mm 1,0 UV-I 717 W/m 1,5 C 12,7 C 11,9 km/h (2 Bft) 0,00 %
30.09.2015 15:36 13,0 C 46 % 1028,5 hPa 0,0 l/m 7,2 km/h (2 Bft) O-NO 72 5 min 0,000 mm 1,0 UV-I 730 W/m 1,7 C 12,5 C 15,8 km/h (3 Bft) 0,00 %
30.09.2015 15:41 13,0 C 47 % 1028,3 hPa 0,0 l/m 13,3 km/h (3 Bft) O 82 5 min 0,000 mm 1,0 UV-I 694 W/m 2,0 C 9,4 C 15,8 km/h (3 Bft) 0,00 %
30.09.2015 15:46 13,1 C 46 % 1028,4 hPa 0,0 l/m 5,4 km/h (1 Bft) O-NO 71 5 min 0,000 mm 1,0 UV-I 698 W/m 1,7 C 13,1 C 7,9 km/h (2 Bft) 0,00 %
30.09.2015 15:51 13,0 C 45 % 1028,6 hPa 0,0 l/m 10,8 km/h (2 Bft) O-NO 77 5 min 0,000 mm 1,0 UV-I 697 W/m 1,4 C 10,5 C 15,8 km/h (3 Bft) 0,00 %
30.09.2015 15:56 12,9 C 45 % 1028,4 hPa 0,0 l/m 9,4 km/h (2 Bft) O-NO 64 5 min 0,000 mm 1,0 UV-I 677 W/m 1,3 C 11,1 C 11,9 km/h (2 Bft) 0,00 %
30.09.2015 16:01 12,8 C 45 % 1029,0 hPa 0,0 l/m 5,4 km/h (1 Bft) O-NO 64 5 min 0,000 mm 1,0 UV-I 245 W/m 1,2 C 12,8 C 7,9 km/h (2 Bft) 0,00 %
30.09.2015 16:06 12,4 C 46 % 1029,2 hPa 0,0 l/m 10,4 km/h (2 Bft) O-SO 121 0 min 0,000 mm 1,0 UV-I 177 W/m 1,1 C 10,0 C 15,8 km/h (3 Bft) 0,00 %
30.09.2015 16:11 11,9 C 47 % 1029,3 hPa 0,0 l/m 14,0 km/h (3 Bft) NO 47 0 min 0,000 mm 1,0 UV-I 167 W/m 1,0 C 7,8 C 28,1 km/h (4 Bft) 0,00 %
30.09.2015 16:16 11,6 C 48 % 1029,1 hPa 0,0 l/m 7,9 km/h (2 Bft) O-NO 76 5 min 0,000 mm 1,0 UV-I 224 W/m 1,0 C 10,6 C 15,8 km/h (3 Bft) 0,00 %
30.09.2015 16:21 11,7 C 46 % 1028,6 hPa 0,0 l/m 19,1 km/h (3 Bft) O 96 5 min 0,000 mm 1,0 UV-I 580 W/m 0,5 C 5,8 C 28,1 km/h (4 Bft) 0,00 %
30.09.2015 16:26 12,1 C 45 % 1028,4 hPa 0,0 l/m 13,0 km/h (3 Bft) O 98 5 min 0,000 mm 1,0 UV-I 574 W/m 0,5 C 8,5 C 24,1 km/h (4 Bft) 0,00 %
30.09.2015 16:31 12,3 C 45 % 1028,6 hPa 0,0 l/m 9,0 km/h (2 Bft) N-NO 30 5 min 0,000 mm 1,0 UV-I 420 W/m 0,7 C 10,7 C 19,8 km/h (3 Bft) 0,00 %
30.09.2015 16:36 12,2 C 46 % 1029,2 hPa 0,0 l/m 11,9 km/h (2 Bft) N-NO 28 0 min 0,000 mm 1,0 UV-I 166 W/m 0,9 C 9,1 C 19,8 km/h (3 Bft) 0,00 %
30.09.2015 16:41 11,9 C 48 % 1029,4 hPa 0,0 l/m 10,8 km/h (2 Bft) O 100 0 min 0,000 mm 1,0 UV-I 157 W/m 1,2 C 9,3 C 11,9 km/h (2 Bft) 0,00 %
30.09.2015 16:46 11,6 C 48 % 1029,3 hPa 0,0 l/m 10,8 km/h (2 Bft) O-NO 73 0 min 0,000 mm 1,0 UV-I 143 W/m 1,0 C 8,9 C 11,9 km/h (2 Bft) 0,00 %
30.09.2015 16:51 11,4 C 48 % 1029,5 hPa 0,0 l/m 4,3 km/h (1 Bft) O-SO 109 0 min 0,000 mm 1,0 UV-I 134 W/m 0,8 C 11,4 C 7,9 km/h (2 Bft) 0,00 %
30.09.2015 16:56 11,2 C 49 % 1029,4 hPa 0,0 l/m 11,5 km/h (2 Bft) O 91 0 min 0,000 mm 1,0 UV-I 110 W/m 0,9 C 8,1 C 15,8 km/h (3 Bft) 0,00 %
30.09.2015 17:01 11,0 C 49 % 1029,5 hPa 0,0 l/m 12,2 km/h (2 Bft) NO 52 0 min 0,000 mm 1,0 UV-I 107 W/m 0,7 C 7,6 C 19,8 km/h (3 Bft) 0,00 %
30.09.2015 17:06 10,9 C 50 % 1029,6 hPa 0,0 l/m 11,5 km/h (2 Bft) O 98 0 min 0,000 mm 1,0 UV-I 106 W/m 0,9 C 7,8 C 15,8 km/h (3 Bft) 0,00 %
30.09.2015 17:11 10,8 C 51 % 1029,7 hPa 0,0 l/m 13,3 km/h (3 Bft) O-NO 67 0 min 0,000 mm 1,0 UV-I 113 W/m 1,1 C 6,8 C 15,8 km/h (3 Bft) 0,00 %
30.09.2015 17:16 10,7 C 51 % 1029,5 hPa 0,0 l/m 5,4 km/h (1 Bft) O-NO 64 5 min 0,000 mm 1,0 UV-I 135 W/m 1,0 C 10,7 C 7,9 km/h (2 Bft) 0,00 %
30.09.2015 17:21 10,8 C 51 % 1028,9 hPa 0,0 l/m 4,7 km/h (1 Bft) O 82 5 min 0,000 mm 1,0 UV-I 367 W/m 1,1 C 10,8 C 11,9 km/h (2 Bft) 0,00 %
30.09.2015 17:26 10,9 C 49 % 1029,0 hPa 0,0 l/m 14,0 km/h (3 Bft) O-SO 105 5 min 0,000 mm 1,0 UV-I 235 W/m 0,6 C 6,6 C 15,8 km/h (3 Bft) 0,00 %
30.09.2015 17:31 11,0 C 50 % 1029,4 hPa 0,0 l/m 8,3 km/h (2 Bft) O-NO 70 5 min 0,000 mm 1,0 UV-I 155 W/m 1,0 C 9,7 C 11,9 km/h (2 Bft) 0,00 %
30.09.2015 17:36 11,1 C 50 % 1029,4 hPa 0,0 l/m 4,3 km/h (1 Bft) O 99 5 min 0,000 mm 0,0 UV-I 157 W/m 1,1 C 11,1 C 7,9 km/h (2 Bft) 0,00 %
30.09.2015 17:41 11,0 C 51 % 1029,6 hPa 0,0 l/m 1,8 km/h (1 Bft) O-SO 115 5 min 0,000 mm 0,0 UV-I 125 W/m 1,3 C 11,0 C 4,0 km/h (1 Bft) 0,00 %
30.09.2015 17:46 10,9 C 51 % 1029,0 hPa 0,0 l/m 6,5 km/h (2 Bft) O 79 5 min 0,000 mm 0,0 UV-I 285 W/m 1,2 C 10,9 C 11,9 km/h (2 Bft) 0,00 %
30.09.2015 17:51 10,8 C 50 % 1028,9 hPa 0,0 l/m 4,3 km/h (1 Bft) O-SO 102 5 min 0,000 mm 0,0 UV-I 270 W/m 0,8 C 10,8 C 7,9 km/h (2 Bft) 0,00 %
30.09.2015 17:56 10,8 C 49 % 1029,0 hPa 0,0 l/m 4,7 km/h (1 Bft) O-NO 78 5 min 0,000 mm 0,0 UV-I 184 W/m 0,5 C 10,8 C 7,9 km/h (2 Bft) 0,00 %
30.09.2015 18:01 10,8 C 49 % 1029,0 hPa 0,0 l/m 6,8 km/h (2 Bft) O 96 5 min 0,000 mm 0,0 UV-I 203 W/m 0,5 C 10,5 C 7,9 km/h (2 Bft) 0,00 %
30.09.2015 18:06 10,7 C 50 % 1028,9 hPa 0,0 l/m 5,4 km/h (1 Bft) O-NO 76 5 min 0,000 mm 0,0 UV-I 168 W/m 0,7 C 10,7 C 7,9 km/h (2 Bft) 0,00 %
30.09.2015 18:11 10,6 C 49 % 1029,2 hPa 0,0 l/m 7,2 km/h (2 Bft) NO 44 5 min 0,000 mm 0,0 UV-I 110 W/m 0,3 C 10,0 C 11,9 km/h (2 Bft) 0,00 %
30.09.2015 18:16 10,4 C 48 % 1029,7 hPa 0,0 l/m 8,3 km/h (2 Bft) NO 50 5 min 0,000 mm 0,0 UV-I 53 W/m -0,1 C 9,1 C 15,8 km/h (3 Bft) 0,00 %
30.09.2015 18:21 10,2 C 49 % 1029,3 hPa 0,0 l/m 7,9 km/h (2 Bft) O-NO 70 5 min 0,000 mm 0,0 UV-I 69 W/m -0,0 C 9,1 C 11,9 km/h (2 Bft) 0,00 %
30.09.2015 18:26 10,1 C 49 % 1029,8 hPa 0,0 l/m 14,4 km/h (3 Bft) O-NO 62 5 min 0,000 mm 0,0 UV-I 45 W/m -0,1 C 5,5 C 15,8 km/h (3 Bft) 0,00 %
30.09.2015 18:31 9,9 C 50 % 1029,9 hPa 0,0 l/m 11,9 km/h (2 Bft) O 93 5 min 0,000 mm 0,0 UV-I 24 W/m -0,0 C 6,4 C 15,8 km/h (3 Bft) 0,00 %
30.09.2015 18:36 9,9 C 50 % 1029,9 hPa 0,0 l/m 0,7 km/h (0 Bft) O 94 0 min 0,000 mm 0,0 UV-I 10 W/m -0,0 C 9,9 C 4,0 km/h (1 Bft) 0,00 %
30.09.2015 18:41 9,8 C 51 % 1029,9 hPa 0,0 l/m 0,4 km/h (0 Bft) O 82 0 min 0,000 mm 0,0 UV-I 5 W/m 0,2 C 9,8 C 4,0 km/h (1 Bft) 0,00 %
30.09.2015 18:46 9,6 C 51 % 1030,1 hPa 0,0 l/m 6,8 km/h (2 Bft) O 85 0 min 0,000 mm 0,0 UV-I 0 W/m -0,0 C 9,3 C 7,9 km/h (2 Bft) 0,00 %
30.09.2015 18:51 9,6 C 52 % 1030,0 hPa 0,0 l/m 5,8 km/h (2 Bft) O 90 0 min 0,000 mm 0,0 UV-I 0 W/m 0,2 C 9,6 C 7,9 km/h (2 Bft) 0,00 %
30.09.2015 18:56 9,4 C 53 % 1030,0 hPa 0,0 l/m 4,3 km/h (1 Bft) O 98 0 min 0,000 mm 0,0 UV-I 0 W/m 0,3 C 9,4 C 7,9 km/h (2 Bft) 0,00 %
30.09.2015 19:01 9,2 C 54 % 1030,0 hPa 0,0 l/m 6,8 km/h (2 Bft) O-SO 106 0 min 0,000 mm 0,0 UV-I 0 W/m 0,4 C 8,9 C 11,9 km/h (2 Bft) 0,00 %
30.09.2015 19:06 9,0 C 57 % 1030,1 hPa 0,0 l/m 2,9 km/h (1 Bft) O 84 0 min 0,000 mm 0,0 UV-I 0 W/m 0,9 C 9,0 C 4,0 km/h (1 Bft) 0,00 %
30.09.2015 19:11 8,7 C 58 % 1030,2 hPa 0,0 l/m 6,8 km/h (2 Bft) O 97 0 min 0,000 mm 0,0 UV-I 0 W/m 0,9 C 8,4 C 7,9 km/h (2 Bft) 0,00 %
30.09.2015 19:16 8,6 C 58 % 1030,2 hPa 0,0 l/m 4,3 km/h (1 Bft) O-NO 75 0 min 0,000 mm 0,0 UV-I 0 W/m 0,8 C 8,6 C 7,9 km/h (2 Bft) 0,00 %
30.09.2015 19:21 8,5 C 59 % 1030,3 hPa 0,0 l/m 0,4 km/h (0 Bft) O-SO 110 0 min 0,000 mm 0,0 UV-I 0 W/m 1,0 C 8,5 C 4,0 km/h (1 Bft) 0,00 %
30.09.2015 19:26 8,4 C 59 % 1030,2 hPa 0,0 l/m 5,8 km/h (2 Bft) O-NO 69 0 min 0,000 mm 0,0 UV-I 0 W/m 0,9 C 8,4 C 7,9 km/h (2 Bft) 0,00 %
30.09.2015 19:31 8,3 C 59 % 1030,3 hPa 0,0 l/m 1,8 km/h (1 Bft) O-SO 123 0 min 0,000 mm 0,0 UV-I 0 W/m 0,8 C 8,3 C 4,0 km/h (1 Bft) 0,00 %
30.09.2015 19:36 8,3 C 59 % 1030,1 hPa 0,0 l/m 2,9 km/h (1 Bft) O 98 0 min 0,000 mm 0,0 UV-I 0 W/m 0,8 C 8,3 C 7,9 km/h (2 Bft) 0,00 %
30.09.2015 19:41 8,3 C 58 % 1030,2 hPa 0,0 l/m 5,8 km/h (2 Bft) O 80 0 min 0,000 mm 0,0 UV-I 0 W/m 0,5 C 8,3 C 7,9 km/h (2 Bft) 0,00 %
30.09.2015 19:46 8,3 C 60 % 1030,4 hPa 0,0 l/m 6,8 km/h (2 Bft) O 83 0 min 0,000 mm 0,0 UV-I 0 W/m 1,0 C 8,0 C 11,9 km/h (2 Bft) 0,00 %
30.09.2015 19:51 8,1 C 61 % 1030,2 hPa 0,0 l/m 7,9 km/h (2 Bft) O 96 0 min 0,000 mm 0,0 UV-I 0 W/m 1,0 C 6,9 C 11,9 km/h (2 Bft) 0,00 %
30.09.2015 19:56 7,9 C 61 % 1030,3 hPa 0,0 l/m 3,2 km/h (1 Bft) O-NO 76 0 min 0,000 mm 0,0 UV-I 0 W/m 0,9 C 7,9 C 11,9 km/h (2 Bft) 0,00 %
30.09.2015 20:01 7,9 C 60 % 1030,6 hPa 0,0 l/m 5,8 km/h (2 Bft) O 96 0 min 0,000 mm 0,0 UV-I 0 W/m 0,6 C 7,9 C 7,9 km/h (2 Bft) 0,00 %
30.09.2015 20:06 8,0 C 59 % 1030,6 hPa 0,0 l/m 5,8 km/h (2 Bft) O-NO 78 0 min 0,000 mm 0,0 UV-I 0 W/m 0,5 C 8,0 C 7,9 km/h (2 Bft) 0,00 %
30.09.2015 20:11 8,1 C 59 % 1030,6 hPa 0,0 l/m 4,0 km/h (1 Bft) O 98 0 min 0,000 mm 0,0 UV-I 0 W/m 0,6 C 8,1 C 7,9 km/h (2 Bft) 0,00 %
30.09.2015 20:16 7,9 C 62 % 1030,6 hPa 0,0 l/m 6,8 km/h (2 Bft) O-NO 69 0 min 0,000 mm 0,0 UV-I 0 W/m 1,1 C 7,6 C 11,9 km/h (2 Bft) 0,00 %
30.09.2015 20:21 7,7 C 62 % 1030,4 hPa 0,0 l/m 0,7 km/h (0 Bft) O-SO 123 0 min 0,000 mm 0,0 UV-I 0 W/m 0,9 C 7,7 C 4,0 km/h (1 Bft) 0,00 %
30.09.2015 20:26 7,5 C 62 % 1030,3 hPa 0,0 l/m 6,8 km/h (2 Bft) O-NO 77 0 min 0,000 mm 0,0 UV-I 0 W/m 0,7 C 7,2 C 11,9 km/h (2 Bft) 0,00 %
30.09.2015 20:31 7,5 C 62 % 1030,4 hPa 0,0 l/m 1,8 km/h (1 Bft) NO 52 0 min 0,000 mm 0,0 UV-I 0 W/m 0,7 C 7,5 C 4,0 km/h (1 Bft) 0,00 %
30.09.2015 20:36 7,5 C 63 % 1030,5 hPa 0,0 l/m 10,8 km/h (2 Bft) O 99 0 min 0,000 mm 0,0 UV-I 0 W/m 0,9 C 4,3 C 11,9 km/h (2 Bft) 0,00 %
30.09.2015 20:41 7,3 C 63 % 1030,7 hPa 0,0 l/m 6,5 km/h (2 Bft) O 98 0 min 0,000 mm 0,0 UV-I 0 W/m 0,7 C 7,2 C 11,9 km/h (2 Bft) 0,00 %
30.09.2015 20:46 7,3 C 62 % 1030,7 hPa 0,0 l/m 7,9 km/h (2 Bft) N-NO 33 0 min 0,000 mm 0,0 UV-I 0 W/m 0,5 C 6,1 C 11,9 km/h (2 Bft) 0,00 %
30.09.2015 20:51 7,5 C 62 % 1030,7 hPa 0,0 l/m 3,2 km/h (1 Bft) O-SO 104 0 min 0,000 mm 0,0 UV-I 0 W/m 0,7 C 7,5 C 7,9 km/h (2 Bft) 0,00 %
30.09.2015 20:56 7,4 C 63 % 1030,8 hPa 0,0 l/m 6,8 km/h (2 Bft) O-NO 73 0 min 0,000 mm 0,0 UV-I 0 W/m 0,8 C 7,1 C 7,9 km/h (2 Bft) 0,00 %
30.09.2015 21:01 7,2 C 63 % 1030,7 hPa 0,0 l/m 0,0 km/h (0 Bft) NO 40 0 min 0,000 mm 0,0 UV-I 0 W/m 0,6 C 7,2 C 0,0 km/h (0 Bft) 0,00 %
30.09.2015 21:06 6,9 C 64 % 1030,8 hPa 0,0 l/m 0,7 km/h (0 Bft) O-NO 78 0 min 0,000 mm 0,0 UV-I 0 W/m 0,6 C 6,9 C 4,0 km/h (1 Bft) 0,00 %
30.09.2015 21:11 6,7 C 66 % 1030,4 hPa 0,0 l/m 4,0 km/h (1 Bft) S-SO 149 0 min 0,000 mm 0,0 UV-I 0 W/m 0,8 C 6,7 C 7,9 km/h (2 Bft) 0,00 %
30.09.2015 21:16 6,5 C 66 % 1030,7 hPa 0,0 l/m 5,8 km/h (2 Bft) O 89 0 min 0,000 mm 0,0 UV-I 0 W/m 0,6 C 6,5 C 7,9 km/h (2 Bft) 0,00 %
30.09.2015 21:21 6,5 C 67 % 1030,7 hPa 0,0 l/m 6,5 km/h (2 Bft) O 90 0 min 0,000 mm 0,0 UV-I 0 W/m 0,8 C 6,4 C 7,9 km/h (2 Bft) 0,00 %
30.09.2015 21:26 6,4 C 67 % 1030,7 hPa 0,0 l/m 1,4 km/h (1 Bft) O-NO 77 0 min 0,000 mm 0,0 UV-I 0 W/m 0,7 C 6,4 C 4,0 km/h (1 Bft) 0,00 %
30.09.2015 21:31 6,3 C 67 % 1030,6 hPa 0,0 l/m 9,4 km/h (2 Bft) O-SO 115 0 min 0,000 mm 0,0 UV-I 0 W/m 0,6 C 3,9 C 11,9 km/h (2 Bft) 0,00 %
30.09.2015 21:36 6,3 C 67 % 1030,6 hPa 0,0 l/m 2,9 km/h (1 Bft) O-SO 113 0 min 0,000 mm 0,0 UV-I 0 W/m 0,6 C 6,3 C 4,0 km/h (1 Bft) 0,00 %
30.09.2015 21:41 6,2 C 68 % 1030,6 hPa 0,0 l/m 0,7 km/h (0 Bft) NO 53 0 min 0,000 mm 0,0 UV-I 0 W/m 0,7 C 6,2 C 4,0 km/h (1 Bft) 0,00 %
30.09.2015 21:46 6,0 C 68 % 1030,6 hPa 0,0 l/m 0,4 km/h (0 Bft) NO 49 0 min 0,000 mm 0,0 UV-I 0 W/m 0,6 C 6,0 C 4,0 km/h (1 Bft) 0,00 %
30.09.2015 21:51 5,9 C 69 % 1030,6 hPa 0,0 l/m 2,2 km/h (1 Bft) O 96 0 min 0,000 mm 0,0 UV-I 0 W/m 0,7 C 5,9 C 4,0 km/h (1 Bft) 0,00 %
30.09.2015 21:56 5,8 C 70 % 1030,5 hPa 0,0 l/m 1,4 km/h (1 Bft) O 82 0 min 0,000 mm 0,0 UV-I 0 W/m 0,8 C 5,8 C 4,0 km/h (1 Bft) 0,00 %
30.09.2015 22:01 5,7 C 68 % 1030,4 hPa 0,0 l/m 0,0 km/h (0 Bft) NO 54 0 min 0,000 mm 0,0 UV-I 0 W/m 0,3 C 5,7 C 0,0 km/h (0 Bft) 0,00 %
30.09.2015 22:06 5,9 C 68 % 1030,3 hPa 0,0 l/m 6,8 km/h (2 Bft) O 88 0 min 0,000 mm 0,0 UV-I 0 W/m 0,5 C 5,6 C 7,9 km/h (2 Bft) 0,00 %
30.09.2015 22:11 6,1 C 67 % 1030,6 hPa 0,0 l/m 0,4 km/h (0 Bft) O-NO 73 0 min 0,000 mm 0,0 UV-I 0 W/m 0,4 C 6,1 C 4,0 km/h (1 Bft) 0,00 %
30.09.2015 22:16 6,2 C 66 % 1030,5 hPa 0,0 l/m 0,7 km/h (0 Bft) O-NO 72 0 min 0,000 mm 0,0 UV-I 0 W/m 0,3 C 6,2 C 4,0 km/h (1 Bft) 0,00 %
30.09.2015 22:21 6,2 C 67 % 1030,6 hPa 0,0 l/m 0,0 km/h (0 Bft) O 89 0 min 0,000 mm 0,0 UV-I 0 W/m 0,5 C 6,2 C 0,0 km/h (0 Bft) 0,00 %
30.09.2015 22:26 6,0 C 69 % 1030,6 hPa 0,0 l/m 0,0 km/h (0 Bft) O-NO 60 0 min 0,000 mm 0,0 UV-I 0 W/m 0,8 C 6,0 C 0,0 km/h (0 Bft) 0,00 %
30.09.2015 22:31 5,9 C 69 % 1030,4 hPa 0,0 l/m 0,0 km/h (0 Bft) O-NO 64 0 min 0,000 mm 0,0 UV-I 0 W/m 0,7 C 5,9 C 0,0 km/h (0 Bft) 0,00 %
30.09.2015 22:36 5,6 C 70 % 1030,5 hPa 0,0 l/m 0,0 km/h (0 Bft) O-NO 61 0 min 0,000 mm 0,0 UV-I 0 W/m 0,6 C 5,6 C 0,0 km/h (0 Bft) 0,00 %
30.09.2015 22:41 5,3 C 71 % 1030,5 hPa 0,0 l/m 0,0 km/h (0 Bft) O 88 0 min 0,000 mm 0,0 UV-I 0 W/m 0,5 C 5,3 C 0,0 km/h (0 Bft) 0,00 %
30.09.2015 22:46 5,2 C 71 % 1030,4 hPa 0,0 l/m 0,0 km/h (0 Bft) O-NO 69 0 min 0,000 mm 0,0 UV-I 0 W/m 0,4 C 5,2 C 0,0 km/h (0 Bft) 0,00 %
30.09.2015 22:51 5,3 C 71 % 1030,5 hPa 0,0 l/m 0,7 km/h (0 Bft) O-SO 105 0 min 0,000 mm 0,0 UV-I 0 W/m 0,5 C 5,3 C 4,0 km/h (1 Bft) 0,00 %
30.09.2015 22:56 5,2 C 72 % 1030,4 hPa 0,0 l/m 0,4 km/h (0 Bft) O-NO 58 0 min 0,000 mm 0,0 UV-I 0 W/m 0,6 C 5,2 C 4,0 km/h (1 Bft) 0,00 %
30.09.2015 23:01 5,1 C 72 % 1030,2 hPa 0,0 l/m 0,0 km/h (0 Bft) O 85 0 min 0,000 mm 0,0 UV-I 0 W/m 0,5 C 5,1 C 0,0 km/h (0 Bft) 0,00 %
30.09.2015 23:06 5,0 C 74 % 1030,3 hPa 0,0 l/m 0,0 km/h (0 Bft) O-SO 104 0 min 0,000 mm 0,0 UV-I 0 W/m 0,8 C 5,0 C 0,0 km/h (0 Bft) 0,00 %
30.09.2015 23:11 4,8 C 74 % 1030,4 hPa 0,0 l/m 0,0 km/h (0 Bft) NO 56 0 min 0,000 mm 0,0 UV-I 0 W/m 0,6 C 4,8 C 0,0 km/h (0 Bft) 0,00 %
30.09.2015 23:16 4,8 C 74 % 1030,4 hPa 0,0 l/m 4,3 km/h (1 Bft) O 97 0 min 0,000 mm 0,0 UV-I 0 W/m 0,6 C 4,8 C 7,9 km/h (2 Bft) 0,00 %
30.09.2015 23:21 4,8 C 74 % 1030,3 hPa 0,0 l/m 0,7 km/h (0 Bft) O 91 0 min 0,000 mm 0,0 UV-I 0 W/m 0,6 C 4,8 C 4,0 km/h (1 Bft) 0,00 %
30.09.2015 23:26 4,8 C 75 % 1030,2 hPa 0,0 l/m 0,0 km/h (0 Bft) O-NO 60 0 min 0,000 mm 0,0 UV-I 0 W/m 0,8 C 4,8 C 0,0 km/h (0 Bft) 0,00 %
30.09.2015 23:31 4,8 C 75 % 1030,2 hPa 0,0 l/m 0,7 km/h (0 Bft) O-NO 62 0 min 0,000 mm 0,0 UV-I 0 W/m 0,8 C 4,8 C 4,0 km/h (1 Bft) 0,00 %
30.09.2015 23:36 4,7 C 75 % 1030,1 hPa 0,0 l/m 5,4 km/h (1 Bft) O 93 0 min 0,000 mm 0,0 UV-I 0 W/m 0,7 C 4,7 C 7,9 km/h (2 Bft) 0,00 %
30.09.2015 23:41 4,8 C 74 % 1030,0 hPa 0,0 l/m 0,0 km/h (0 Bft) O-NO 75 0 min 0,000 mm 0,0 UV-I 0 W/m 0,6 C 4,8 C 0,0 km/h (0 Bft) 0,00 %
30.09.2015 23:46 4,9 C 73 % 1030,0 hPa 0,0 l/m 0,0 km/h (0 Bft) O-NO 68 0 min 0,000 mm 0,0 UV-I 0 W/m 0,5 C 4,9 C 0,0 km/h (0 Bft) 0,00 %
30.09.2015 23:51 5,0 C 73 % 1029,9 hPa 0,0 l/m 0,7 km/h (0 Bft) O-NO 63 0 min 0,000 mm 0,0 UV-I 0 W/m 0,6 C 5,0 C 4,0 km/h (1 Bft) 0,00 %
30.09.2015 23:56 5,2 C 72 % 1030,0 hPa 0,0 l/m 5,8 km/h (2 Bft) O-NO 75 0 min 0,000 mm 0,0 UV-I 0 W/m 0,6 C 5,2 C 7,9 km/h (2 Bft) 0,00 %
_ Min-Zeit 04:50 15:26 15:41 - 00:00 - - - - - - 18:16 11:06 00:00 00:00
Minimum _ 3,9 C 45 % 1028,3 hPa - 0,0 km/h (0 Bft) - - - - - - -0,1 C 3,0 C 0,0 km/h (0 Bft) 0,00 %
_ Max-Zeit 15:26 03:45 00:30 00:00 14:41 - - 08:31 00:00 10:51 14:16 00:35 15:21 11:36 00:00
Maximum _ 13,3 C 94 % 1032,0 hPa 0,0 l/m 25,6 km/h
O (4 Bft)
- - 6 min 0,000 mm 2,0 UV-I 738 W/m 4,9 C 13,1 C 28,1 km/h
O (4 Bft)
0,00 %
Durchschnitt _ 8,0 C 69 % 1030,6 hPa #0,0 l/m 4,7 km/h (1 Bft) O - #8:01 h #0,000 mm 1,3 UV-I 334 W/m 2,3 C 7,1 C 7,4 km/h (2 Bft) 0,00 %